[Iaude] MPEC J280: 2024 JC15 [a=1.25,e=0.06,i=6.1,H=24.0]

mpec at cfa.harvard.edu mpec at cfa.harvard.edu
Sun May 12 09:58:05 EDT 2024


M.P.E.C. 2024-J280                                 Issued 2024 May 12, 13:56 UT

     The Minor Planet Electronic Circulars contain information on unusual
         minor planets, routine data on comets and natural satellites,
         and occasional editorial announcements.  They are published
    on behalf of Division F of the International Astronomical Union by the
          Minor Planet Center, Smithsonian Astrophysical Observatory,
                          Cambridge, MA 02138, U.S.A.
			  
             Prepared using the Tamkin Foundation Computer Network

                              MPC at CFA.HARVARD.EDU
            URL https://www.minorplanetcenter.net/    ISSN 1523-6714

                                   2024 JC15                                    


Observations:
     K24J15C* C2024 05 09.46503815 28 32.005-08 34 24.40         22.65wXEJ280F51
     K24J15C  C2024 05 09.49055315 28 28.484-08 34 37.79         22.49wXEJ280F51
     K24J15C  C2024 05 09.50332615 28 26.737-08 34 44.67         22.08wXEJ280F51
     K24J15C KC2024 05 10.28349715 26 49.204-08 41 52.69         22.10GVEJ280V06
     K24J15C KC2024 05 10.28826915 26 48.592-08 41 55.21         22.54GVEJ280V06
     K24J15C KC2024 05 10.29304015 26 47.908-08 41 57.91         22.16GVEJ280V06
     K24J15C KC2024 05 10.29781215 26 47.274-08 42 00.40         22.18GVEJ280V06
     K24J15C 3C2024 05 10.40021115 26 34.568-08 42 51.31         22.19GVEJ280T14
     K24J15C 3C2024 05 10.40142315 26 34.401-08 42 52.00         22.33GVEJ280T14
     K24J15C 3C2024 05 10.40263215 26 34.234-08 42 52.66         22.18GVEJ280T14
     K24J15C 1C2024 05 11.97425 15 23 14.16 -08 57 45.3          23.7 VXEJ280033
     K24J15C 1C2024 05 11.97787 15 23 13.71 -08 57 48.1          22.6 VXEJ280033
     K24J15C 1C2024 05 11.98149 15 23 13.25 -08 57 49.9          22.2 VXEJ280033

Observer details:
033 Karl Schwarzschild Observatory, Tautenburg.  Observers S. Melnikov, C.
    Hogner, F. Ludwig, M. Hartmann, B. Stecklum.  Measurer B. Stecklum.
    1.34-m f/3 Schmidt + CCD.
F51 Pan-STARRS 1, Haleakala.  Observers J. Herman, T. Lowe, P. Minguez, A.
    Schultz, I. Smith.  Measurers K. Chambers, T. de Boer, J. Fairlamb, H.
    Gao, M. Huber, C.-C. Lin, E. Magnier, Y. Ramanjooloo, R. Wainscoat, R.
    Weryk.  1.8-m Ritchey-Chretien + CCD.
T14 Canada-France-Hawaii Telescope, Maunakea.  Observers R. Wainscoat, L.
    Wells, H. Flewelling.  Measurers R. Weryk, R. Wainscoat.  3.6-m f/4.1
    reflector + CCD.
V06 Catalina Sky Survey-Kuiper.  Observer H. Groeller.  Measurers T. Beuden,
    V. F. Carvajal, D. Fay, J. B. Fazekas, D. C. Fuls, A. R. Gibbs, A. D.
    Grauer, H. Groeller, J. K. Hogan, R. A. Kowalski, S. M. Larson, G. J.
    Leonard, D. Rankin, R. L. Seaman, F. C. Shelly, K. W. Wierzchos.  1.55-m
    reflector + 1K CCD.

Orbital elements:
2024 JC15                                                Earth MOID = 0.1867 AU
Epoch 2024 Mar. 31.0 TT = JDT 2460400.5                 MPC                     
M 111.28422              (2000.0)            P               Q                  
n   0.70922089     Peri.   14.47178     +0.07144441     -0.99232333             
a   1.2453221      Node    71.50860     +0.90423114     +0.02171640             
e   0.0606846      Incl.    6.11022     +0.42102464     +0.12174895             
P   1.39           H   24.05          G   0.15           U   8                  
Residuals in seconds of arc
240509 F51  0.1+  0.0     240510 V06  0.1-  0.0     240511 033  0.5-  0.5+
240509 F51  0.1-  0.1+    240510 V06  0.2+  0.1+    240511 033  0.0   0.3-
240509 F51  0.0   0.0     240510 T14  0.0   0.0     240511 033  0.5+  0.0
240510 V06  0.3-  0.1-    240510 T14  0.0   0.0
240510 V06  0.3+  0.0     240510 T14  0.0   0.0

Ephemeris:
2024 JC15                a,e,i = 1.25, 0.06, 6                   q = 1.1698
Date    TT    R. A. (2000) Decl.     Delta      r    Elong.  Phase     V
2024 04 12    16 07 35.6 -06 04 49   0.3490  1.2862   139.0    30.8    23.6
...
2024 04 27    15 52 01.2 -07 03 14   0.3111  1.2968   156.0    18.4    23.0
...
2024 05 05    15 37 41.1 -07 56 53   0.3007  1.3018   165.5    11.2    22.7
...
2024 05 11    15 25 18.2 -08 48 09   0.2985  1.3053   170.4     7.4    22.5
2024 05 12    15 23 11.1 -08 57 35   0.2986  1.3058   170.7     7.2    22.5
2024 05 13    15 21 03.9 -09 07 14   0.2989  1.3063   170.7     7.1    22.5
...
2024 05 19    15 08 35.1 -10 09 37   0.3035  1.3093   167.2     9.9    22.7
...
2024 05 27    14 53 48.0 -11 41 50   0.3171  1.3128   158.1    16.7    23.0
...
2024 06 11    14 36 29.2 -14 48 54   0.3628  1.3177   141.2    28.9    23.7

A. U. Tomatic                (C) Copyright 2024 MPC           M.P.E.C. 2024-J280





More information about the Iaude mailing list